This is the latest recevied weather packets stored in our database for station/object WR7DW-3. If no packets are shown the sender has not sent any weather packets the latest 10 day(s).
| Time | Temp. | Humidity | Pressure | Rain* | Wind** | Luminosity | Snow |
|---|---|---|---|---|---|---|---|
| 1777972480 | -1.11° C | 64% | 1009.4 hPa | 0 mm | - | - | - |
| 1777971580 | -1.11° C | 65% | 1009.4 hPa | 0 mm | - | - | - |
| 1777970680 | -1.11° C | 63% | 1009.3 hPa | 0 mm | - | - | - |
| 1777969780 | -1.11° C | 63% | 1009.4 hPa | 0 mm | - | - | - |
| 1777968880 | -1.11° C | 66% | 1009.4 hPa | 0 mm | - | - | - |
| 1777967980 | -1.11° C | 66% | 1009.3 hPa | 0 mm | - | - | - |
| 1777967080 | -1.11° C | 66% | 1009.3 hPa | 0 mm | - | - | - |
| 1777966180 | -0.56° C | 65% | 1009.4 hPa | 0 mm | - | - | - |
| 1777965280 | -0.56° C | 63% | 1009.4 hPa | 0 mm | - | - | - |
| 1777964380 | -0.56° C | 64% | 1009.1 hPa | 0 mm | - | - | - |
| 1777963480 | -0.56° C | 65% | 1009.3 hPa | 0 mm | - | - | - |
| 1777962580 | 0° C | 62% | 1009.2 hPa | 0 mm | - | - | - |
| 1777961680 | 0° C | 63% | 1009.1 hPa | 0 mm | - | - | - |
| 1777960780 | 0° C | 64% | 1009 hPa | 0 mm | - | - | - |
| 1777959880 | 0° C | 65% | 1008.9 hPa | 0 mm | - | - | - |
| 1777958980 | -0.56° C | 66% | 1009 hPa | 0 mm | - | - | - |
| 1777958086 | 0° C | 66% | 1008.8 hPa | 0 mm | - | - | - |
| 1777957180 | 0° C | 67% | 1008.4 hPa | 0 mm | - | - | - |
| 1777956280 | 0° C | 68% | 1008.2 hPa | 0 mm | - | - | - |
| 1777955380 | 0° C | 69% | 1008.4 hPa | 0 mm | - | - | - |
| 1777954480 | 0° C | 69% | 1008.1 hPa | 0 mm | - | - | - |
| 1777953580 | -0.56° C | 72% | 1007.9 hPa | 0 mm | - | - | - |
| 1777952680 | -0.56° C | 74% | 1007.8 hPa | 0 mm | - | - | - |
| 1777950880 | 0° C | 74% | 1007.4 hPa | 0 mm | - | - | - |
| 1777949980 | 0° C | 73% | 1007.2 hPa | 0 mm | - | - | - |
* Rain latest hour (hover to see other rain measurements)
** Current wind speed in m/s (hover to see current wind gust speed)